Automated Weather Station

Magsaysay, Infanta, Quezon


Readings

as of November 11, 2016 04:01 PM
Wind Speed
3.4 mm
Rainfall Amount
0.14 mm
Rainfall Intensity
11.3 mm
Air Temperature
mm
Wind Direction
96 mm
Air Humidity
97.7 mm

Data Source: PREDICT (Advanced Science and Technology Institute)

12 HOUR DATA

PREVIOUS DATA

From
To
DateTime Wind Speed Rain Amount Rain Intensity Air Temperature Air Pressure Wind Direction Air Humidity
October 20, 2016 04:01 PM 5.9 0 mm 0 22.3 922.04 212 97.2
October 20, 2016 03:01 PM 16.4 0 mm 0 22.9 921.9 219 96.6
October 20, 2016 02:01 PM 3.2 0 mm 0 22.9 920.97 152 97.9
October 20, 2016 01:02 PM 9.5 0 mm 0 22.8 920.84 247 98.3
October 20, 2016 12:01 PM 7.7 0 mm 0 22.6 920.84 184 99.4
October 20, 2016 11:01 AM 10.4 0 mm 0 22.5 921.24 245 99.5
October 20, 2016 10:01 AM 9.9 0 mm 0 22.7 921.64 236 99.6
October 20, 2016 09:01 AM 20.2 0 mm 0 22.3 921.77 238 99.5
October 20, 2016 08:01 AM 14.9 0 mm 0 21.8 920.84 241 99.4
October 20, 2016 07:01 AM 8.1 0 mm 0 21.9 920.44 204 99.4
October 20, 2016 06:01 AM 14.4 0 mm 0 22.1 919.64 248 99.5
October 20, 2016 05:01 AM 16.5 0 mm 0 22.5 918.44 232 99.5
October 20, 2016 04:01 AM 9.8 0 mm 0 22.7 917.64 193 99.6
October 20, 2016 03:02 AM 4.2 0 mm 0 22.3 916.44 289 99.5
October 20, 2016 02:01 AM 10.5 0.02 mm 0.9 22.2 916.04 197 99.4
October 20, 2016 01:01 AM 15.6 0 mm 0 22.3 916.04 202 99.4
October 20, 2016 12:01 AM 13.9 0 mm 0 22.7 916.17 250 99.5
October 19, 2016 11:01 PM 18 0 mm 0 22.7 916.3 211 99.5
October 19, 2016 10:01 PM 8.6 0 mm 0 22.9 916.57 239 99.5
October 19, 2016 09:01 PM 19.2 0 mm 0 22.8 917.24 219 99.4
October 19, 2016 08:01 PM 14.1 0 mm 0 22.8 917.37 208 99.3
October 19, 2016 07:01 PM 10.2 0 mm 0 22.8 917.37 253 99.2
October 19, 2016 06:01 PM 17.2 0 mm 0 22.5 917.24 251 98.3
October 19, 2016 05:01 PM 16.7 0 mm 0 22.6 916.7 234 99.2
October 19, 2016 04:01 PM 3.2 0 mm 0 22.8 916.84 96 99.1
October 19, 2016 03:01 PM 12 0 mm 0 22.8 917.64 246 98.3
October 19, 2016 02:03 PM 8.5 0 mm 0 22.6 918.84 211 97.5
October 19, 2016 01:01 PM 13.9 0 mm 0 23 919.24 242 93.9
October 19, 2016 12:01 PM 11.9 0 mm 0 23.4 919.37 249 92.6
October 19, 2016 11:02 AM 11.9 0 mm 0 23.7 920.84 226 92.1